Flag for U.S.A. Weather past 2 weeks in Lynchburg, Virginia, U.S.A.

Now
69 °F

Passing clouds.


Feels Like: 69 °F
Forecast: 69 / 88 °F
Wind: No wind

Location: Lynchburg Regional Airport

Current Time: Sep 2, 2015 at 7:03:27 AM

Latest Report: Sep 2, 2015 at 5:54 AM


Visibility: 7 mi

Pressure: 30.06 "Hg

Humidity: 93%

Dew point: 67 °F

Location of LynchburgLocation

Historic Weather in Lynchburg — Graph

°F

Lynchburg temperature yesterday

Maximum temperature yesterday: 90 °F (at 2:54 PM)
Minimum temperature yesterday: 62 °F (at 6:01 AM)
Average temperature yesterday: 75 °F

Past Weeks' High & Low Weather Summary

 TemperatureHumidityPressure
High90 °F (Sep 1, 2:54 PM)100% (Aug 19, 4:54 AM)30.24 "Hg (Aug 19, 4:54 AM)
Low57 °F (Aug 28, 6:54 AM)33% (Aug 25, 4:54 PM)29.85 "Hg (Aug 24, 3:54 PM)
Average73 °F74%30.05 "Hg
* Reported Aug 18 5:54 AM — Sep 2 5:54 AM, Lynchburg, Weather by CustomWeather, © 2015

Note: Actual official high and low records may vary slightly from our data, if they occured in-between our weather recording intervals... More about our weather records

Advertising

Lynchburg weather history for previous 24 hours

 ConditionsComfort  
Time TempWeatherWind HumidityBarometerVisibility
5:54 AM
Wed, Sep 2
69 °FPassing clouds.No wind93%30.06 "Hg7 mi
4:54 AM69 °FOvercast.No wind96%30.06 "Hg8 mi
3:54 AM69 °FPassing clouds.No wind93%30.05 "Hg7 mi
2:54 AM70 °FPassing clouds.No wind93%30.06 "Hg8 mi
1:54 AM71 °FPassing clouds.No wind90%30.08 "Hg9 mi
12:54 AM70 °FClear.No wind90%30.09 "Hg9 mi
11:54 PM
Tue, Sep 1
71 °FPassing clouds.5 mph87%30.08 "Hg10 mi
10:54 PM73 °FPassing clouds.No wind84%30.08 "Hg10 mi
9:54 PM73 °FOvercast.No wind81%30.09 "Hg10 mi
8:54 PM77 °FClear.3 mph71%30.09 "Hg10 mi
7:54 PM80 °FSunny.3 mph64%30.06 "Hg10 mi
6:54 PM85 °FPartly sunny.3 mph59%30.05 "Hg10 mi
4:54 PM90 °FPassing clouds.9 mph43%30.04 "Hg10 mi
3:54 PM90 °FPassing clouds.7 mph43%30.05 "Hg10 mi
2:54 PM90 °FScattered clouds.3 mph39%30.06 "Hg10 mi
1:54 PM86 °FPartly sunny.6 mph43%30.08 "Hg10 mi
12:54 PM86 °FScattered clouds.5 mph48%30.10 "Hg10 mi
11:54 AM87 °FSunny.N/A48%30.11 "Hg10 mi
10:54 AM84 °FSunny.6 mph53%30.12 "Hg10 mi
9:54 AM80 °FSunny.6 mph62%30.11 "Hg10 mi
8:54 AM73 °FSunny.No wind84%30.11 "Hg10 mi
7:54 AM65 °FSunny.No wind100%30.10 "Hg10 mi
Weather by CustomWeather, © 2015

See weather overviewHow to use our weather pages